User: anonymous   Login
Location: Peebles
(55.6412°N, 3.1714°W)
Time: 18:26:41
(UTC+00:00)
Language:

deb Kosmos-2123 - Orbit

View from above orbital plane
View from above orbital plane
View from above satellite
View from above satellite

Ground track
Ground track

The orbit data is extracted from the following two-line orbital elements,

1 21091U 91007C   22332.06783588  .00000193  00000-0  17015-3 0  9997
2 21091  82.9303 174.4039 0027854 146.2681  19.5791 13.80047716600423
Epoch (UTC): 28 November 2022 01:37:41
Eccentricity: 0.0027854
inclination: 82.9303°
perigee height: 943 km
apogee height: 984 km
right ascension of ascending node: 174.4039°
argument of perigee: 146.2681°
revolutions per day: 13.80047716
mean anomaly at epoch: 19.5791°
orbit number at epoch: 60042

The dashed part of the orbit path shows where the satellite is in the earth's shadow,  

DLR